| time (UTC) | temp F | wind direction | speed knots | gust knots | rain 1hr in | rain 24hr in | rain mn in | humidity % | barometer mb |
| 20260505002347 | 70 | 293 | 7.8 | 8.7 | 0.00 | 0.00 | 0.00 | ||
| 20260505000848 | 72 | 291 | 7.0 | 4.3 | 0.00 | 0.00 | 0.00 | ||
| 20260504235348 | 71 | 287 | 7.8 | 11.3 | 0.00 | 0.00 | 0.00 | ||
| 20260504233849 | 72 | 325 | 6.1 | 3.5 | 0.00 | 0.00 | 0.00 | ||
| 20260504232349 | 74 | 318 | 7.0 | 7.0 | 0.00 | 0.00 | 0.00 | ||
| 20260504230850 | 73 | 274 | 5.2 | 11.3 | 0.00 | 0.00 | 0.00 | ||
| 20260504225350 | 74 | 304 | 8.7 | 6.1 | 0.00 | 0.00 | 0.00 | ||
| 20260504223851 | 76 | 305 | 6.1 | 1.7 | 0.00 | 0.00 | 0.00 | ||
| 20260504222351 | 73 | 314 | 8.7 | 8.7 | 0.00 | 0.00 | 0.00 | ||
| 20260504220851 | 74 | 284 | 7.8 | 7.0 | 0.00 | 0.00 | 0.00 | ||
| 20260504215352 | 75 | 285 | 6.1 | 6.1 | 0.00 | 0.00 | 0.00 | ||
| 20260504213852 | 75 | 280 | 8.7 | 10.4 | 0.00 | 0.00 | 0.00 | ||
| 20260504212353 | 73 | 328 | 7.0 | 4.3 | 0.00 | 0.00 | 0.00 | ||
| 20260504210853 | 73 | 290 | 7.8 | 8.7 | 0.00 | 0.00 | 0.00 | ||
| 20260504205354 | 72 | 287 | 5.2 | 4.3 | 0.00 | 0.00 | 0.00 | ||
| 20260504202357 | 73 | 280 | 6.1 | 8.7 | 0.00 | 0.00 | 0.00 | ||
| 20260504200856 | 73 | 294 | 5.2 | 5.2 | 0.00 | 0.00 | 0.00 | ||
| 20260504195357 | 71 | 300 | 7.0 | 7.0 | 0.00 | 0.00 | 0.00 | ||
| 20260504193858 | 72 | 328 | 5.2 | 6.1 | 0.00 | 0.00 | 0.00 | ||
| 20260504192358 | 70 | 302 | 7.0 | 5.2 | 0.00 | 0.00 | 0.00 | ||
| 20260504190859 | 70 | 283 | 6.1 | 2.6 | 0.00 | 0.00 | 0.00 | ||
| 20260504185401 | 70 | 262 | 4.3 | 5.2 | 0.00 | 0.00 | 0.00 | ||
| 20260504183901 | 68 | 297 | 3.5 | 2.6 | 0.00 | 0.00 | 0.00 | ||
| 20260504182404 | 69 | 290 | 5.2 | 1.7 | 0.00 | 0.00 | 0.00 | ||
| 20260504180903 | 70 | 347 | 4.3 | 5.2 | 0.00 | 0.00 | 0.00 | ||
| 20260504175403 | 69 | 281 | 6.1 | 8.7 | 0.00 | 0.00 | 0.00 | ||
| 20260504173904 | 69 | 305 | 3.5 | 3.5 | 0.00 | 0.00 | 0.00 | ||
| 20260504170905 | 69 | 283 | 6.1 | 7.8 | 0.00 | 0.00 | 0.00 | ||
| 20260504150913 | 60 | 333 | 0.9 | 2.6 | 0.00 | 0.00 | 0.00 | ||
| 20260504140917 | 59 | 236 | 0.0 | 0.0 | 0.00 | 0.00 | 0.00 | ||
| 20260504080949 | 49 | 179 | 0.0 | 0.0 | 0.00 | 0.00 | 0.00 | ||
| 20260504045504 | 48 | 179 | 0.0 | 0.0 | 0.00 | 0.01 | 0.00 | ||
| 20260504044005 | 48 | 179 | 0.0 | 0.0 | 0.00 | 0.01 | 0.00 | ||
| 20260504042506 | 50 | 179 | 0.0 | 0.0 | 0.00 | 0.01 | 0.00 | ||
| 20260504041007 | 50 | 179 | 0.0 | 0.0 | 0.00 | 0.01 | 0.00 | ||
| 20260504035508 | 50 | 179 | 0.0 | 0.0 | 0.00 | 0.01 | 0.00 | ||
| 20260504034010 | 51 | 179 | 0.0 | 0.0 | 0.00 | 0.01 | 0.00 | ||
| 20260504032511 | 50 | 329 | 0.0 | 0.0 | 0.00 | 0.01 | 0.00 | ||
| 20260504031012 | 50 | 329 | 0.0 | 0.0 | 0.00 | 0.01 | 0.00 | ||
| 20260504025513 | 51 | 329 | 0.0 | 0.0 | 0.00 | 0.01 | 0.00 | ||
| 20260504024014 | 53 | 329 | 0.0 | 0.0 | 0.00 | 0.01 | 0.00 | ||
| 20260504022515 | 54 | 329 | 0.0 | 0.0 | 0.00 | 0.01 | 0.00 | ||
| 20260504021016 | 54 | 293 | 2.6 | 0.0 | 0.00 | 0.01 | 0.00 | ||
| 20260504015517 | 54 | 357 | 0.9 | 5.2 | 0.00 | 0.01 | 0.00 | ||
| 20260504014018 | 57 | 259 | 7.8 | 7.0 | 0.00 | 0.01 | 0.00 | ||
| 20260504012518 | 62 | 284 | 4.3 | 4.3 | 0.00 | 0.01 | 0.00 | ||
| 20260504011019 | 63 | 316 | 4.3 | 5.2 | 0.00 | 0.01 | 0.00 | ||
| 20260504005520 | 63 | 335 | 6.1 | 5.2 | 0.00 | 0.01 | 0.00 | ||
| 20260504004020 | 67 | 339 | 6.1 | 6.1 | 0.00 | 0.01 | 0.00 |